Volver al catálogo

USA 478

ActivoMilitarVLEO
NORAD 62547·PAYLOAD·🇺🇸 United States

Lanzado Jan 10, 2025 desde Vandenberg Space Force Base

Loading…

Próximos Pases (próximas 24 horas)

TLE

ObsoletoSource: Mike McCants

Época: Aug 26, 2026, 02:29 UTC

1 62547U 25005R   26238.10391666 0.00000000  00000-0  00000-0 0    02
2 62547  70.0167 241.5824 0003000 116.9938 243.0061 14.96713491    04

Sigue USA 478 en tiempo real con AllMySat

Download on the App Store